Current Version              Previous Version:    01  02  03  04  05  06  07  08  09  10  11  12  13  14  15  16  17  18  19  20  21  22  23  24  25  26  27  28  29  30  
   31  32  33  34  35  36  37  38  39  40  41  42  43  44  45  46  47  48  49  50  51  52  53  54  55  56  57  58  59  60  

[Printable]
404
ASUS44 KFWD 312010
RWRTX
NORTH TEXAS HOURLY WEATHER ROUNDUP
NATIONAL WEATHER SERVICE FORT WORTH TX
200 PM CST SAT JAN 31 2015

NOTE: "FAIR" INDICATES FEW OR NO CLOUDS BELOW 12,000 FEET WITH NO
SIGNIFICANT WEATHER AND/OR OBSTRUCTIONS TO VISIBILITY.

TXZ118-119-312100-
DALLAS/FORT WORTH METROPLEX

CITY           SKY/WX    TMP DP  RH WIND       PRES   REMARKS
DFW AIRPORT    CLOUDY    52  38  58 SE13      30.04F
DALLAS LOVE    CLOUDY    53  38  56 SE18      30.05F
FTW MEACHAM    LGT RAIN  51  42  71 SE17      30.02F
DAL-EXECUTIVE  LGT RAIN  52  42  69 SE10G21   30.04F
FTW-ALLIANCE   CLOUDY    51  39  63 SE12      30.03F
FTW-SPINKS     CLOUDY    52  41  66 SE10      30.05F
ARLINGTON      CLOUDY    52  39  61 SE12      30.04F
GRAND PRAIRIE  CLOUDY    52  43  71 SE9       30.06F
ADDISON        CLOUDY    52  36  54 E13G22    30.06
MESQUITE       DRIZZLE   52  39  62 SE9       30.07F
LANCASTER      LGT RAIN  51  41  69 SE6       30.07F
$$

TXZ091>094-102>105-117-120-121-131>134-312100-
NORTH CENTRAL TEXAS

CITY           SKY/WX    TMP DP  RH WIND       PRES   REMARKS
SHRMAN/DENISON CLOUDY    52  37  56 E10       30.06F
GAINESVILLE    CLOUDY    49  34  56 SE9       30.06F
BOWIE          RAIN      46  38  74 SE7       30.01F
BRIDGEPORT     CLOUDY    50  40  69 SE9       30.04F
DECATUR        CLOUDY    48  38  70 SE12      30.02F
DENTON         CLOUDY    51  37  58 SE13      30.04F
MCKINNEY       CLOUDY    52  36  54 SE15      30.06F
GREENVILLE     CLOUDY    55  34  44 SE9       30.08F
ROCKWALL       CLOUDY    52  40  64 SE7       30.06F
TERRELL        CLOUDY    57  39  51 SE12      30.07F
WAXAHACHIE     LGT RAIN  50  43  76 E8        30.05F
CLEBURNE       CLOUDY    48  45  87 SE15      30.04F FOG
GRANBURY       LGT RAIN  48  44  87 E8        30.04F
$$

TXZ083>090-098>101-113>116-127>130-139>142-154-155-312100-
WESTERN NORTH TEXAS

CITY           SKY/WX    TMP DP  RH WIND       PRES   REMARKS
WICHITA FALLS  LGT RAIN  44  41  89 SE13      29.99F FOG     WCI  38
WF-KICKAPOO    LGT RAIN  38  35  87 SE9       30.02F WCI  31
VERNON         CLOUDY    44  39  84 SE6       29.99F
ABILENE        LGT RAIN  49  46  90 SE16      29.95F
ABILENE-DYESS  CLOUDY    48  48 100 SE13      29.93F
BRECKENRIDGE   LGT RAIN  48  47  95 SE6       29.98F
GRAHAM         DRIZZLE   44  43  96 SE7       29.99F WCI  40
MINERAL WELLS  LGT RAIN  45  42  89 SE7       30.00F VSB 1
STEPHENVILLE   CLOUDY    46  43  90 S6        30.04F
COMANCHE       DRIZZLE   47  47 100 SE8       30.00F
BROWNWOOD      LGT RAIN  48  48 100 SE12      29.99F
COLEMAN        LGT RAIN  50  50 100 S10       29.97F
BRADY          LGT RAIN  50  50 100 SE13      29.96F
$$

TXZ143>147-156>162-174-175-312100-
CENTRAL TEXAS

CITY           SKY/WX    TMP DP  RH WIND       PRES   REMARKS
WACO           CLOUDY    53  43  68 SE7       30.03F
WACO-TSTC      PTSUNNY   57  46  67 SE7       30.03F
WACO-MCGREGOR  CLOUDY    54  41  62 SE8       30.05F
HILLSBORO      CLOUDY    51  42  71 SE8       30.04F
CORSICANA      CLOUDY    55  40  56 SE13      30.07F
MEXIA          CLOUDY    55  44  65 SE10G16   30.04F
HEARNE         CLOUDY    62  50  63 SE13      30.06F
CAMERON        PTSUNNY   63  51  65 SE13G18   30.03F
TEMPLE         CLOUDY    55  43  62 SE9       30.02F
KILLEEN        LGT RAIN  48  46  93 SE7       30.03F FOG
KILLEEN-SKYLRK CLOUDY    52  43  71 SE5       30.02F
FORT HOOD      LGT RAIN  49  46  88 SE6       30.02F FOG
GATESVILLE     LGT RAIN  46  45  93 CALM      30.06F
HAMILTON       LGT RAIN  47  47 100 SE13      30.03F
LAMPASAS       LGT SNOW  48  47  97 SE8       30.01F
$$

TXZ095>097-106>112-122>126-135>138-148>153-164>167-312100-
EAST TEXAS

CITY           SKY/WX    TMP DP  RH WIND       PRES   REMARKS
PARIS          CLOUDY    54  32  43 SE14      30.11F
SULPHUR SPRNGS CLOUDY    56  34  43 SE10G16   30.11F
MOUNT PLEASANT CLOUDY    54  33  44 SE9       30.15F
GILMER         CLOUDY    56  33  41 SE8       30.12F
MINEOLA        PTSUNNY   57  32  38 SE9       30.10F
TYLER          CLOUDY    57  35  43 SE12      30.09F
LONGVIEW       CLOUDY    57  33  40 SE8       30.12F
MARSHALL       CLOUDY    58  32  36 SE7       30.16F
ATHENS         CLOUDY    55  37  50 SE12      30.07F
PALESTINE      CLOUDY    56  42  59 E12       30.09F
JACKSONVILLE   CLOUDY    55  39  55 MISG      30.11F
HENDERSON      CLOUDY    57  35  43 S7        30.12F
NACOGDOCHES    CLOUDY    55  37  50 SE9       30.14F
LUFKIN         CLOUDY    63  41  44 E9        30.11F
$$

SUPPLEMENTAL OBSERVATIONS (CENTRAL)

CITY           SKY/WX    TMP DP  RH WIND       PRES   REMARKS
CADDO GRASSLND   N/A     54  32  43 SE7         N/A
PAT MAYSE LAKE   N/A     52  30  43 E12         N/A
GREENVILLE       N/A     54  34  47 SE10        N/A
CEDAR HILL       N/A     52  39  62 SE6         N/A
MCGREGOR         N/A     54  43  66 SE8         N/A
$$

SUPPLEMENTAL OBSERVATIONS (WEST)

CITY           SKY/WX    TMP DP  RH WIND       PRES   REMARKS
MILLERS CREEK    N/A     46  43  87 SE9         N/A
LBJ GRASSLAND    N/A     48  36  61 SE10        N/A
GRANBURY         N/A     46  43  87 SE8G17      N/A
HAMBY            N/A     48  43  81 SE10        N/A
IVIE RESERVOIR   N/A     52  50  93 E6          N/A
COLORADO BEND    N/A     48  45  87 S10         N/A
$$

SUPPLEMENTAL OBSERVATIONS (EAST)

CITY           SKY/WX    TMP DP  RH WIND       PRES   REMARKS
TEXARKANA        N/A     54  32  43 SE5         N/A
GILMER           N/A     57  32  38 SE8         N/A
HENDERSON        N/A     57  34  41 S9          N/A
LUFKIN           N/A     59  41  51 MISG        N/A
$$

SUPPLEMENTAL OBSERVATIONS ARE A COLLECTION OF AUTOMATED INSTRUMENTS
THAT ARE MAINTAINED BY A VARIETY OF FEDERAL AND STATE AGENCIES.
CERTAIN ELEMENTS...SUCH AS HUMIDITY VALUES AND SUSTAINED WIND
SPEEDS...MAY BE APPROXIMATED.